sat.trackr.live / text

‹ back to catalog

STARLINK-37037

NORAD 68084 · 2026-042R

PAYLOAD ACTIVE UNKNOWN

§ Identity

Operator
Country
US
Launch date
2026-03-04
Launch site
AFETR
Launch vehicle
Mass (kg)
RCS (m²)

Purposes: comms

External: N2YO · Heavens-Above · Gunter

§ Orbital elements

Epoch: 2026-05-24T12:06:41.475744Z

Period
93.85 min
Inclination
53.1586°
Eccentricity
0.0001131
Mean motion
15.34399424 rev/d
Perigee alt
461.9 km
Apogee alt
463.5 km
Semi-major
6,840.8 km
B*
3.0974e-4
RAAN
185.7985°
Arg perigee
65.3352°
Mean anomaly
294.7768°
Rev number
1,392

§ Raw data

STARLINK-370371 68084U 26042R   26144.50464671  .00010103  00000+0  30974-3 0  99902 68084  53.1586 185.7985 0001131  65.3352 294.7768 15.34399424 13921

JSON: /api/v1/satellites/68084 · /tle

For live sub-satellite position, see the globe view (requires WebGL).

§ Visibility from observer

Set your observer location to see the next 7 days of passes ≥ 10°. The values pass through the URL so the page stays shareable.

No JS? Fill the form by hand. The geolocation button needs JavaScript.